Location: Kellogg
(38.0159°N, 90.0546°W)
Time: 07:05:34
(UTC+00:00)

Vanguard 1 Rocket - Pass Details

Date: 14 September 2024
Orbit: 650 x 4218 km, 34.3° (Epoch: 09 October)

Event Time Altitude Azimuth Distance (km) Brightness Sun altitude
Rises 11:20:20 0° 258° (WSW) 6,042 - -5.0°
Exits shadow 11:21:54 - 257° (WSW) 5,720 10.8 -4.7°
Reaches altitude 10° 11:23:34 10° 257° (WSW) 5,399 10.7 -4.4°
Maximum altitude 11:42:04 80° 174° (S) 3,877 10.6 -0.7°
Drops below altitude 10° 12:08:41 10° 93° (E) 7,285 14.9 4.5°
Sets 12:13:59 0° 93° (E) 8,118 15.2 5.5°
